Weather History for Nashua, NH

Change the Weather History Date:

Wednesday, January 2, 2013

  Actual Average Record
Temperature  
Mean Temperature 16 °F -  
Max Temperature 26 °F 35 °F 58 °F (1979)
Min Temperature 5 °F 16 °F -15 °F (1957)
Degree Days  
Heating Degree Days 50    
Moisture  
Dew Point 4 °F    
Average Humidity 59    
Maximum Humidity 76    
Minimum Humidity 46    
Precipitation  
Precipitation 0.00 in - - ()
Sea Level Pressure  
Sea Level Pressure 29.99 in    
Wind  
Wind Speed 7 mph (WNW)    
Max Wind Speed 18 mph    
Max Gust Speed 33 mph    
Visibility 10 miles    
Events Snow    
Averages and records for this station are not official NWS values.
T = Trace of Precipitation, MM = Missing Value Source: NWS Daily Summary

Daily Weather History Graph

Daily Weather History Graph

Search for Another Location

Airport:

Trip Planner

Search our weather history database for the weather conditions in past years. The results will help you decide how hot, cold, wet, or windy it might be!

Date:

Astronomy

Jan. 02, 2013 Rise Set
Actual Time 7:16 AM EST 4:23 PM EST
Civil Twilight 6:44 AM EST 4:55 PM EST
Nautical Twilight 6:09 AM EST 5:31 PM EST
Astronomical Twilight 5:34 AM EST 6:05 PM EST
Moon 10:01 PM EST (1/2) 9:49 AM EST (1/2)
Length of Visible Light 10h 11m
Length of Day
9h 07m
Waning Gibbous, 75% of the Moon is Illuminated
Jan 2
Waning Gibbous
Jan 4
Last Quarter
Jan 11
New
Jan 18
First Quarter
Jan 26
Full

Hourly Weather History & Observations

Time (EST) Temp. Windchill Dew Point Humidity Pressure Visibility Wind Dir Wind Speed Gust Speed Precip Events Conditions
12:51 AM 15.1 °F 4.2 °F 1.0 °F 54% 29.95 in 10.0 mi WNW 8.1 mph - N/A   Clear
1:51 AM 13.1 °F 7.1 °F 1.0 °F 59% 29.97 in 10.0 mi WNW 3.5 mph - N/A   Clear
2:51 AM 9.1 °F - 0.1 °F 67% 29.97 in 10.0 mi Calm Calm - N/A   Clear
3:51 AM 7.2 °F - 0.1 °F 73% 29.96 in 10.0 mi Calm Calm - N/A   Clear
4:51 AM 10.0 °F - -0.9 °F 61% 29.95 in 10.0 mi Calm Calm - N/A   Clear
5:51 AM 5.0 °F -2.1 °F -1.8 °F 73% 29.95 in 10.0 mi NNW 3.5 mph - N/A   Clear
6:51 AM 7.2 °F 0.3 °F 1.0 °F 76% 29.94 in 10.0 mi South 3.5 mph - N/A   Clear
7:51 AM 14.0 °F 3.9 °F 3.0 °F 62% 29.94 in 10.0 mi West 6.9 mph 16.1 mph N/A   Overcast
8:51 AM 18.1 °F 7.9 °F 5.0 °F 57% 29.94 in 10.0 mi West 8.1 mph - N/A   Overcast
9:51 AM 20.1 °F 5.9 °F 7.2 °F 57% 29.95 in 10.0 mi West 16.1 mph 33.4 mph N/A   Mostly Cloudy
10:51 AM 23.0 °F 8.7 °F 9.1 °F 55% 29.94 in 10.0 mi West 18.4 mph 29.9 mph N/A   Mostly Cloudy
11:51 AM 26.1 °F 14.5 °F 10.0 °F 51% 29.92 in 10.0 mi West 13.8 mph 26.5 mph N/A   Partly Cloudy
12:39 PM 26.6 °F 13.8 °F 12.2 °F 55% 29.89 in 10.0 mi WNW 17.3 mph 24.2 mph N/A   Mostly Cloudy
12:51 PM 26.1 °F 13.1 °F 12.0 °F 55% 29.92 in 10.0 mi WNW 17.3 mph 24.2 mph N/A   Partly Cloudy
1:51 PM 24.1 °F 13.1 °F 17.1 °F 75% 29.94 in 2.5 mi WNW 11.5 mph - 0.00 in Snow Light Snow
2:17 PM 24.8 °F - 17.6 °F 74% 29.93 in 10.0 mi North - - 0.00 in Snow Light Snow
2:51 PM 25.2 °F - 14.0 °F 63% 29.96 in 10.0 mi North - - 0.00 in Snow Light Snow
3:51 PM 24.1 °F - 9.1 °F 53% 29.99 in 10.0 mi North - - N/A   Clear
4:51 PM 23.0 °F - 5.0 °F 46% 30.03 in 10.0 mi North - - N/A   Clear
5:51 PM 21.0 °F - 5.0 °F 50% 30.04 in 10.0 mi North - - N/A   Clear
6:51 PM 18.1 °F - 5.0 °F 57% 30.07 in 10.0 mi North - - N/A   Clear
7:51 PM 16.2 °F - 2.1 °F 54% 30.08 in 10.0 mi North - - N/A   Clear
8:51 PM 12.0 °F - -0.9 °F 56% 30.12 in 10.0 mi North - - N/A   Clear
9:51 PM 10.0 °F - -2.9 °F 56% 30.12 in 10.0 mi North - - N/A   Squalls
10:51 PM 9.1 °F - -6.9 °F 48% 30.13 in 10.0 mi North - - N/A   Clear
11:51 PM 7.2 °F - -8.9 °F 48% 30.13 in 10.0 mi North - - N/A   Clear